Tracking 21496 objects as of 1-Oct-2020
HD Live streaming from Space Station
objects crossing your sky now

H-2A R/B

Track H-2A R/B now!
10-day predictions


NORAD ID: 36105
Int'l Code: 2009-066B
Perigee: 507.2 km
Apogee: 549.1 km
Inclination: 97.3 °
Period: 95.0 minutes
Semi major axis: 6899 km
RCS: Unknown
Launch date: November 28, 2009
Source: Japan (JPN)
Launch site: TANEGASHIMA SPACE CENTER (TNSTA)

Note: This is a ROCKET BODY
aabbcc
Your satellite tracking list
Your tracking list is empty




NASA's NSSDC Master Catalog

Two Line Element Set (TLE):
1 36105U 09066B   20169.21785600  .00000500  00000-0  26701-4 0    01
2 36105  97.2866 170.2276 0030370 126.9529  14.6617 15.15001551    06
Source of the keplerian elements: McCants